Total_Precipitation_Accumulation
0.00 0.00 0.00 0.00 0.00 0.00 0.00 0.00 0.00 0.02 0.00 0.00 0.00 0.00 0.00 0.00 0.01 0.01 0.06 0.92 0.52 0.08 0.29 0.32 0.72 1.37 0.64 0.13 0.14 0.55 1.34 1.97 2.22 2.45 1.19 0.80 0.66 0.45 0.47 0.39 0.35 0.52 0.62 0.78
0.00 0.00 0.00 0.00 0.00 0.00 0.00 0.00 0.00 0.00 0.00 0.00 0.00 0.00 0.00 0.00 0.08 0.02 0.01 0.08 0.23 0.06 0.17 0.44 1.79 1.40 0.74 0.41 0.44 0.54 0.48 0.62 0.82 1.02 1.12 1.93 0.82 0.54 0.65 0.83 0.69 0.55 0.71 0.73
0.00 0.00 0.00 0.00 0.00 0.00 0.00 0.00 0.00 0.00 0.00 0.00 0.00 0.00 0.00 0.00 0.10 0.00 0.00 0.03 0.11 0.13 0.14 0.30 1.00 1.61 0.29 0.54 0.81 0.52 0.57 0.40 0.42 0.58 0.85 1.08 0.68 0.66 0.63 0.57 0.46 0.39 0.32 0.43
0.00 0.00 0.00 0.00 0.00 0.00 0.00 0.00 0.00 0.00 0.00 0.00 0.00 0.00 0.00 0.00 0.00 0.00 0.03 0.02 0.02 0.15 0.35 0.15 0.34 0.35 0.37 0.43 0.88 0.60 0.41 0.32 0.45 0.49 0.86 0.50 0.32 0.23 0.30 0.23 0.28 0.24 0.19 0.16
0.00 0.00 0.00 0.00 0.00 0.00 0.00 0.00 0.00 0.00 0.00 0.00 0.00 0.00 0.00 0.00 0.01 0.05 0.01 0.07 0.09 0.06 0.10 0.12 0.14 0.32 0.39 0.30 0.65 0.27 0.20 0.19 0.26 0.28 0.28 0.14 0.05 0.16 0.26 0.30 0.25 0.25 0.24 0.18
0.00 0.00 0.00 0.00 0.00 0.00 0.00 0.00 0.00 0.00 0.00 0.00 0.00 0.00 0.00 0.00 0.01 0.03 0.00 0.01 0.01 0.03 0.05 0.13 0.13 0.19 0.33 0.36 0.33 0.16 0.14 0.17 0.12 0.06 0.02 0.07 0.10 0.25 0.31 0.40 0.31 0.30 0.31 0.30
0.00 0.00 0.00 0.00 0.00 0.00 0.00 0.00 0.00 0.00 0.00 0.00 0.00 0.00 0.00 0.00 0.00 0.00 0.00 0.00 0.01 0.04 0.05 0.09 0.11 0.12 0.21 0.19 0.05 0.09 0.14 0.15 0.12 0.03 0.01 0.02 0.17 0.19 0.14 0.26 0.31 0.29 0.24 0.34
0.00 0.00 0.00 0.00 0.00 0.00 0.00 0.00 0.00 0.00 0.00 0.00 0.00 0.00 0.00 0.09 0.02 0.01 0.01 0.00 0.02 0.05 0.06 0.08 0.08 0.07 0.08 0.09 0.10 0.11 0.11 0.09 0.04 0.01 0.00 0.04 0.06 0.03 0.15 0.28 0.32 0.20 0.19 0.26
0.00 0.00 0.00 0.00 0.00 0.00 0.00 0.00 0.00 0.00 0.00 0.00 0.00 0.00 0.00 0.02 0.01 0.04 0.06 0.18 0.46 0.56 0.24 0.20 0.11 0.10 0.11 0.10 0.09 0.05 0.08 0.04 0.01 0.00 0.01 0.05 0.01 0.02 0.12 0.24 0.32 0.38 0.35 0.27
0.00 0.00 0.00 0.00 0.00 0.00 0.00 0.00 0.00 0.00 0.00 0.00 0.00 0.00 0.03 0.13 0.05 0.08 0.62 0.85 0.79 0.31 0.21 0.17 0.19 0.09 0.02 0.01 0.00 0.03 0.03 0.04 0.01 0.01 0.02 0.04 0.02 0.04 0.13 0.16 0.23 0.26 0.30 0.33
0.00 0.00 0.00 0.00 0.00 0.00 0.00 0.00 0.00 0.00 0.00 0.00 0.00 0.01 0.03 0.13 0.06 0.05 0.10 0.78 0.87 0.55 0.21 0.24 0.17 0.13 0.12 0.07 0.04 0.01 0.01 0.01 0.00 0.01 0.03 0.02 0.00 0.02 0.07 0.07 0.06 0.08 0.11 0.17
0.00 0.00 0.00 0.00 0.00 0.00 0.00 0.00 0.00 0.00 0.00 0.00 0.00 0.00 0.03 0.10 0.10 0.08 0.10 0.15 0.38 0.40 0.23 0.30 0.28 0.27 0.21 0.10 0.02 0.00 0.00 0.00 0.00 0.01 0.02 0.01 0.00 0.00 0.01 0.03 0.01 0.01 0.02 0.06
0.00 0.00 0.00 0.00 0.00 0.00 0.00 0.00 0.00 0.00 0.00 0.01 0.04 0.06 0.03 0.02 0.09 0.48 0.18 0.25 0.43 0.50 0.26 0.30 0.28 0.20 0.15 0.06 0.02 0.10 0.02 0.00 0.00 0.01 0.00 0.00 0.01 0.01 0.01 0.02 0.02 0.01 0.01 0.02
0.00 0.00 0.00 0.00 0.00 0.00 0.00 0.00 0.00 0.00 0.00 0.00 0.00 0.00 0.02 0.13 0.10 0.54 0.24 0.70 1.04 0.82 0.27 0.22 0.13 0.07 0.10 0.04 0.15 0.48 0.05 0.00 0.01 0.01 0.00 0.00 0.01 0.02 0.03 0.04 0.08 0.12 0.06 0.02
0.00 0.00 0.00 0.00 0.00 0.00 0.00 0.00 0.00 0.00 0.00 0.00 0.00 0.02 0.07 0.53 0.67 0.26 0.21 0.76 1.12 0.54 0.15 0.15 0.07 0.04 0.01 0.03 0.04 0.01 0.03 0.00 0.08 0.03 0.01 0.00 0.00 0.01 0.02 0.04 0.05 0.05 0.07 0.10
0.00 0.00 0.00 0.00 0.00 0.00 0.00 0.00 0.00 0.00 0.00 0.00 0.00 0.00 0.12 0.30 0.11 0.17 0.17 0.14 0.42 0.22 0.24 0.27 0.16 0.03 0.05 0.06 0.07 0.04 0.03 0.01 0.07 0.09 0.04 0.01 0.00 0.01 0.01 0.01 0.00 0.01 0.03 0.08
0.00 0.00 0.00 0.00 0.00 0.00 0.00 0.00 0.00 0.00 0.00 0.00 0.00 0.00 0.16 0.43 0.22 0.12 0.12 0.05 0.19 0.19 0.33 0.67 0.21 0.08 0.09 0.13 0.07 0.09 0.13 0.13 0.06 0.14 0.09 0.06 0.01 0.01 0.00 0.00 0.03 0.09 0.12 0.13
0.00 0.00 0.00 0.00 0.00 0.00 0.00 0.01 0.00 0.00 0.00 0.00 0.00 0.01 0.09 0.32 0.12 0.13 0.12 0.06 0.14 0.19 0.25 0.10 0.07 0.09 0.14 0.11 0.10 0.13 0.22 0.26 0.19 0.22 0.29 0.18 0.06 0.06 0.10 0.16 0.27 0.20 0.11 0.05
0.00 0.00 0.00 0.00 0.00 0.00 0.00 0.01 0.00 0.00 0.00 0.00 0.00 0.01 0.03 0.14 0.03 0.08 0.14 0.23 0.22 0.16 0.10 0.07 0.07 0.08 0.07 0.14 0.20 0.23 0.24 0.27 0.34 0.35 0.35 0.20 0.28 0.29 0.27 0.25 0.22 0.08 0.00 0.00
0.00 0.00 0.00 0.00 0.00 0.00 0.00 0.00 0.00 0.00 0.00 0.00 0.00 0.01 0.02 0.07 0.08 0.05 0.08 0.19 0.17 0.12 0.11 0.10 0.12 0.10 0.17 0.24 0.21 0.19 0.29 0.30 0.41 0.37 0.34 0.23 0.21 0.25 0.19 0.12 0.09 0.05 0.01 0.00
0.00 0.00 0.00 0.00 0.00 0.00 0.00 0.00 0.01 0.08 0.03 0.00 0.01 0.02 0.09 0.10 0.14 0.12 0.06 0.07 0.09 0.14 0.14 0.17 0.19 0.15 0.12 0.11 0.08 0.09 0.10 0.19 0.12 0.05 0.04 0.06 0.06 0.12 0.11 0.13 0.10 0.06 0.02 0.01
0.02 0.00 0.00 0.00 0.00 0.00 0.00 0.01 0.01 0.06 0.00 0.01 0.05 0.07 0.17 0.21 0.11 0.05 0.10 0.19 0.18 0.18 0.20 0.16 0.17 0.18 0.14 0.09 0.04 0.06 0.10 0.10 0.10 0.14 0.13 0.11 0.12 0.14 0.13 0.13 0.12 0.08 0.07 0.12
0.06 0.04 0.04 0.01 0.03 0.03 0.02 0.06 0.08 0.10 0.04 0.05 0.08 0.16 0.13 0.04 0.06 0.13 0.22 0.24 0.24 0.24 0.18 0.13 0.11 0.07 0.05 0.02 0.01 0.03 0.11 0.10 0.17 0.19 0.15 0.15 0.22 0.34 0.44 0.71 0.82 0.79 0.53 0.31
0.23 0.14 0.08 0.09 0.04 0.10 0.10 0.09 0.10 0.13 0.21 0.32 0.40 0.42 0.36 0.45 0.72 0.95 1.04 0.80 0.47 0.25 0.17 0.08 0.03 0.04 0.03 0.03 0.03 0.02 0.05 0.08 0.12 0.23 0.23 0.39 0.64 0.76 0.84 0.68 0.59 0.57 0.47 0.29
0.07 0.19 0.07 0.10 0.43 0.26 0.42 0.55 0.54 0.91 0.95 0.84 0.75 0.65 0.63 0.61 0.57 0.42 0.23 0.12 0.06 0.03 0.02 0.02 0.04 0.05 0.05 0.05 0.03 0.02 0.02 0.02 0.04 0.09 0.11 0.16 0.24 0.27 0.24 0.25 0.19 0.13 0.12 0.14
0.01 0.07 0.15 0.17 0.24 0.41 0.41 0.32 0.50 0.61 0.63 0.30 0.15 0.11 0.13 0.08 0.03 0.01 0.01 0.01 0.00 0.00 0.00 0.00 0.01 0.01 0.02 0.02 0.01 0.01 0.01 0.01 0.04 0.03 0.00 0.00 0.00 0.01 0.03 0.07 0.08 0.10 0.08 0.07